CGPZT CYXU-CYXU

Flight info

Callsign CGPZT
Flight time 0h 4m
Altitude 2000
Route VFR CIRCUITS
Aircraft C172

Departure

Time 2026-04-23 22:46
Airport London International Airport (CYXU)

Arrival

Time 2026-04-23 22:50
Airport London International Airport (CYXU)
Time Latitude Longitude Altitude Speed Heading
2026-04-23 22:32 43.03573 -81.16431 910 ft 0 kts 333°
2026-04-23 22:36 43.03572 -81.16431 910 ft 0 kts 333°
2026-04-23 22:36 43.03573 -81.16431 910 ft 0 kts 332°
2026-04-23 22:36 43.03595 -81.16432 910 ft 5 kts 31°
2026-04-23 22:37 43.03608 -81.16408 910 ft 8 kts 73°
2026-04-23 22:37 43.03622 -81.16307 910 ft 11 kts 75°
2026-04-23 22:37 43.03676 -81.16274 910 ft 7 kts 348°
2026-04-23 22:37 43.03685 -81.16276 910 ft 3 kts 358°
2026-04-23 22:38 43.03701 -81.16282 910 ft 3 kts 262°
2026-04-23 22:38 43.03672 -81.16275 910 ft 10 kts 160°
2026-04-23 22:38 43.03640 -81.16183 909 ft 13 kts 79°
2026-04-23 22:38 43.03656 -81.16070 908 ft 11 kts 79°
2026-04-23 22:39 43.03671 -81.15968 908 ft 11 kts 78°
2026-04-23 22:39 43.03686 -81.15860 907 ft 12 kts 80°
2026-04-23 22:39 43.03702 -81.15756 906 ft 10 kts 72°
2026-04-23 22:39 43.03753 -81.15753 907 ft 9 kts 318°
2026-04-23 22:40 43.03802 -81.15812 908 ft 10 kts 319°
2026-04-23 22:40 43.03864 -81.15886 910 ft 13 kts 316°
2026-04-23 22:40 43.04036 -81.16014 915 ft 11 kts
2026-04-23 22:41 43.04059 -81.16012 916 ft 0 kts
2026-04-23 22:44 43.04060 -81.16012 916 ft 1 kts
2026-04-23 22:45 43.04108 -81.15988 918 ft 14 kts 37°
2026-04-23 22:45 43.04100 -81.15855 915 ft 20 kts 138°
2026-04-23 22:45 43.03894 -81.15605 910 ft 62 kts 140°
2026-04-23 22:45 43.03538 -81.15131 996 ft 79 kts 143°
2026-04-23 22:46 43.03089 -81.14639 1155 ft 85 kts 145°
2026-04-23 22:46 43.02688 -81.14055 1428 ft 86 kts 116°
2026-04-23 22:46 43.02668 -81.13213 1588 ft 95 kts 76°
2026-04-23 22:46 43.02898 -81.12361 1773 ft 96 kts 62°
2026-04-23 22:47 43.03347 -81.11748 1946 ft 96 kts
2026-04-23 22:47 43.04017 -81.11826 1895 ft 102 kts 343°
2026-04-23 22:47 43.04600 -81.12295 1972 ft 97 kts 321°
2026-04-23 22:47 43.05063 -81.12970 1916 ft 100 kts 309°
2026-04-23 22:48 43.05526 -81.13682 1929 ft 99 kts 314°
2026-04-23 22:48 43.06012 -81.14371 1953 ft 101 kts 319°
2026-04-23 22:48 43.06558 -81.14923 1872 ft 96 kts 327°
2026-04-23 22:48 43.07000 -81.15502 1828 ft 89 kts 285°
2026-04-23 22:49 43.06712 -81.16274 1694 ft 97 kts 230°
2026-04-23 22:49 43.06286 -81.16910 1662 ft 85 kts 230°
2026-04-23 22:49 43.05881 -81.17486 1532 ft 79 kts 218°
2026-04-23 22:49 43.05404 -81.17373 1356 ft 75 kts 144°
2026-04-23 22:50 43.05005 -81.16927 1289 ft 73 kts 143°
2026-04-23 22:50 43.04619 -81.16469 1145 ft 73 kts 144°
2026-04-23 22:50 43.04260 -81.16044 973 ft 64 kts 139°
2026-04-23 22:50 43.03974 -81.15701 913 ft 45 kts 138°
2026-04-23 22:51 43.03696 -81.15361 917 ft 70 kts 138°
2026-04-23 22:51 43.03284 -81.14850 977 ft 90 kts 144°
2026-04-23 22:51 43.02797 -81.14245 1092 ft 96 kts 139°
2026-04-23 22:51 43.02386 -81.13611 1421 ft 90 kts 112°
2026-04-23 22:52 43.02588 -81.12819 1621 ft 93 kts 36°
2026-04-23 22:52 43.03106 -81.12306 1765 ft 100 kts 36°
2026-04-23 22:52 43.03685 -81.11990 1978 ft 88 kts 343°
2026-04-23 22:52 43.04151 -81.12545 1921 ft 94 kts 304°
2026-04-23 22:53 43.04507 -81.13295 1928 ft 93 kts 314°
2026-04-23 22:53 43.05029 -81.13817 1946 ft 93 kts 336°
2026-04-23 22:53 43.05645 -81.14124 1951 ft 93 kts 337°
2026-04-23 22:53 43.06185 -81.14490 1989 ft 85 kts 330°
2026-04-23 22:54 43.06560 -81.15065 1880 ft 86 kts 283°
2026-04-23 22:54 43.06429 -81.15854 1741 ft 89 kts 249°
2026-04-23 22:54 43.06133 -81.16571 1599 ft 83 kts 240°
2026-04-23 22:54 43.05783 -81.17223 1457 ft 84 kts 224°
2026-04-23 22:55 43.05301 -81.17306 1287 ft 79 kts 141°
2026-04-23 22:55 43.04906 -81.16811 1212 ft 75 kts 135°
2026-04-23 22:55 43.04528 -81.16357 1078 ft 68 kts 133°
2026-04-23 22:55 43.04189 -81.15949 952 ft 61 kts 131°
2026-04-23 22:56 43.03909 -81.15618 911 ft 42 kts 139°
2026-04-23 22:56 43.03695 -81.15365 911 ft 55 kts 139°
2026-04-23 22:56 43.03350 -81.14910 980 ft 78 kts 137°
2026-04-23 22:56 43.02984 -81.14346 1173 ft 81 kts 131°
2026-04-23 22:57 43.02653 -81.13694 1368 ft 82 kts 124°
2026-04-23 22:57 43.02564 -81.12883 1481 ft 96 kts 75°
2026-04-23 22:57 43.02955 -81.12205 1784 ft 82 kts 40°
2026-04-23 22:57 43.03455 -81.11981 1989 ft 78 kts 343°
2026-04-23 22:58 43.03864 -81.12535 2009 ft 88 kts 302°
2026-04-23 22:58 43.04334 -81.13127 1994 ft 93 kts 328°
2026-04-23 22:58 43.04897 -81.13604 1978 ft 97 kts 333°
2026-04-23 22:58 43.05536 -81.13948 1940 ft 101 kts 340°
2026-04-23 22:59 43.06219 -81.14210 1958 ft 102 kts 342°
2026-04-23 22:59 43.06778 -81.14579 1951 ft 78 kts 326°
2026-04-23 22:59 43.06830 -81.15214 1854 ft 88 kts 234°
2026-04-23 22:59 43.06353 -81.15776 1730 ft 89 kts 223°
2026-04-23 23:00 43.05913 -81.16314 1600 ft 86 kts 227°
2026-04-23 23:00 43.05573 -81.16938 1477 ft 74 kts 236°
2026-04-23 23:00 43.05156 -81.17042 1286 ft 70 kts 155°
2026-04-23 23:00 43.04759 -81.16639 1170 ft 71 kts 144°
2026-04-23 23:01 43.04408 -81.16216 1037 ft 64 kts 142°
2026-04-23 23:01 43.04094 -81.15842 924 ft 53 kts 136°
2026-04-23 23:01 43.03863 -81.15568 910 ft 42 kts 137°
2026-04-23 23:01 43.03561 -81.15177 975 ft 70 kts 139°
2026-04-23 23:02 43.03237 -81.14626 1153 ft 77 kts 128°
2026-04-23 23:02 43.02910 -81.13999 1333 ft 85 kts 113°
2026-04-23 23:02 43.03093 -81.13264 1584 ft 83 kts 47°
2026-04-23 23:02 43.03489 -81.12662 1773 ft 83 kts 38°
2026-04-23 23:03 43.03962 -81.12329 1989 ft 76 kts 345°
2026-04-23 23:03 43.04379 -81.12829 1983 ft 90 kts 302°
2026-04-23 23:03 43.04612 -81.13647 2007 ft 91 kts 306°
2026-04-23 23:03 43.05090 -81.14276 1971 ft 94 kts 322°
2026-04-23 23:04 43.05568 -81.14777 1963 ft 78 kts 326°
2026-04-23 23:04 43.06061 -81.15135 1891 ft 77 kts 331°
2026-04-23 23:04 43.06272 -81.15741 1833 ft 78 kts 265°
2026-04-23 23:04 43.06011 -81.16423 1775 ft 76 kts 244°
2026-04-23 23:05 43.05726 -81.17079 1555 ft 80 kts 243°
2026-04-23 23:05 43.05373 -81.17539 1306 ft 71 kts 168°
2026-04-23 23:05 43.05077 -81.17040 1186 ft 67 kts 133°
2026-04-23 23:05 43.04751 -81.16616 1120 ft 63 kts 146°
2026-04-23 23:06 43.04418 -81.16230 1042 ft 62 kts 131°
2026-04-23 23:06 43.04105 -81.15849 936 ft 58 kts 133°
2026-04-23 23:06 43.03846 -81.15550 910 ft 39 kts 137°
2026-04-23 23:06 43.03586 -81.15225 939 ft 64 kts 142°
2026-04-23 23:07 43.03230 -81.14734 1056 ft 79 kts 139°
2026-04-23 23:07 43.02861 -81.14201 1295 ft 76 kts 140°
2026-04-23 23:07 43.02744 -81.13553 1482 ft 83 kts 56°
2026-04-23 23:07 43.03123 -81.13010 1706 ft 81 kts 42°
2026-04-23 23:08 43.03521 -81.12441 1914 ft 79 kts 23°
2026-04-23 23:08 43.03992 -81.12690 1967 ft 86 kts 302°
2026-04-23 23:08 43.04465 -81.13199 1935 ft 94 kts 341°
2026-04-23 23:08 43.05075 -81.13554 1934 ft 94 kts 330°
2026-04-23 23:09 43.05659 -81.13985 1960 ft 97 kts 328°
2026-04-23 23:09 43.06226 -81.14464 1943 ft 95 kts 329°
2026-04-23 23:09 43.06652 -81.14988 1887 ft 81 kts 284°
2026-04-23 23:09 43.06396 -81.15707 1749 ft 90 kts 233°
2026-04-23 23:10 43.06125 -81.16100 1734 ft 86 kts 239°
2026-04-23 23:10 43.05783 -81.16774 1614 ft 83 kts 239°
2026-04-23 23:10 43.05410 -81.17326 1461 ft 77 kts 190°
2026-04-23 23:10 43.04991 -81.16945 1281 ft 71 kts 136°
2026-04-23 23:11 43.04662 -81.16511 1100 ft 62 kts 138°
2026-04-23 23:11 43.04335 -81.16134 1005 ft 61 kts 138°
2026-04-23 23:11 43.04034 -81.15771 917 ft 52 kts 137°
2026-04-23 23:11 43.03818 -81.15514 911 ft 32 kts 138°
2026-04-23 23:12 43.03680 -81.15349 912 ft 22 kts 139°
2026-04-23 23:12 43.03581 -81.15281 915 ft 13 kts 215°
2026-04-23 23:12 43.03526 -81.15367 912 ft 8 kts 229°
2026-04-23 23:12 43.03523 -81.15371 912 ft 0 kts 229°
2026-04-23 23:13 43.03519 -81.15378 912 ft 6 kts 227°
2026-04-23 23:13 43.03464 -81.15424 910 ft 9 kts 182°
2026-04-23 23:14 43.03398 -81.15428 909 ft 10 kts 182°
2026-04-23 23:14 43.03329 -81.15439 908 ft 11 kts 219°
2026-04-23 23:14 43.03319 -81.15525 907 ft 9 kts 263°
2026-04-23 23:14 43.03283 -81.15592 904 ft 6 kts 245°
2026-04-23 23:15 43.03264 -81.15636 903 ft 7 kts 310°
2026-04-23 23:15 43.03280 -81.15658 903 ft 0 kts 316°